FW4251 Weather Reports


Display with metric or nautical units.
time (UTC)temp
F
wind
direction
speed
MPH
gust
MPH
rain 1hr
in
rain 24hr
in
rain mn
in
humidity
%
barometer
mb
20260902215038 66 118 0.0 1.0 0.00 0.00 0.00 92 1019.8
20260902214536 66 118 0.0 4.0 0.00 0.00 0.00 92 1019.8
20260902214038 66 118 2.0 4.0 0.00 0.00 0.00 92 1019.7
20260902213536 66 117 0.0 2.0 0.00 0.00 0.00 92 1019.7
20260902213045 66 117 0.0 3.0 0.00 0.00 0.00 92 1019.7
20260902212536 66 117 0.0 3.0 0.00 0.00 0.00 92 1019.7
20260902212036 66 117 1.0 4.0 0.00 0.00 0.00 92 1019.6
20260902211536 66 117 0.0 4.0 0.00 0.00 0.00 92 1019.6
20260902211035 66 107 0.0 3.0 0.00 0.00 0.00 92 1019.6
20260902210536 66 107 0.0 3.0 0.00 0.00 0.00 92 1019.7
20260902210035 66 107 0.0 3.0 0.00 0.00 0.00 92 1019.6
20260902205534 66 103 0.0 4.0 0.00 0.00 0.00 93 1019.6
20260902205035 66 68 0.0 3.0 0.00 0.00 0.00 93 1019.5
20260902204535 67 68 0.0 3.0 0.00 0.00 0.00 93 1019.7
20260902204035 67 67 0.0 2.0 0.00 0.00 0.00 93 1020.0
20260902203534 67 67 1.0 2.0 0.00 0.00 0.00 93 1019.8
20260902203034 66 67 0.0 3.0 0.00 0.00 0.00 93 1019.7
20260902202534 66 67 0.0 3.0 0.00 0.00 0.00 93 1019.8
20260902202034 66 67 0.0 2.0 0.00 0.00 0.00 93 1019.8
20260902201533 66 67 0.0 4.0 0.00 0.00 0.00 93 1019.7
20260902201036 66 65 1.0 4.0 0.00 0.00 0.00 93 1019.5
20260902200533 66 66 0.0 3.0 0.00 0.00 0.00 93 1019.5
20260902200033 66 66 1.0 3.0 0.00 0.00 0.00 93 1019.5
20260902195533 66 172 0.0 6.0 0.00 0.00 0.00 93 1019.5
20260902195033 66 169 3.0 6.0 0.00 0.00 0.00 93 1019.6
20260902194541 66 195 2.0 7.0 0.00 0.00 0.00 93 1019.5
20260902194033 66 181 1.0 6.0 0.00 0.00 0.00 93 1019.5
20260902193532 67 191 2.0 6.0 0.00 0.00 0.00 93 1019.8
20260902193031 66 210 0.0 3.0 0.00 0.00 0.00 93 1019.9
20260902192531 66 211 1.0 4.0 0.00 0.00 0.00 93 1019.8
20260902192030 66 211 1.0 6.0 0.00 0.00 0.00 93 1020.0
20260902191631 66 214 2.0 6.0 0.00 0.00 0.00 93 1019.9
20260902191030 66 186 1.0 7.0 0.00 0.00 0.00 93 1019.9
20260902190529 66 155 2.0 9.0 0.00 0.00 0.00 93 1019.9
20260902190047 66 193 2.0 9.0 0.00 0.00 0.00 93 1020.1
20260902185630 66 202 3.0 7.0 0.00 0.00 0.00 93 1020.1
20260902185031 66 277 1.0 4.0 0.00 0.00 0.00 93 1020.3
20260902184527 66 221 1.0 4.0 0.00 0.00 0.00 93 1020.2
20260902184026 66 147 2.0 7.0 0.00 0.00 0.00 93 1020.1
20260902183526 66 223 2.0 5.0 0.00 0.00 0.00 93 1020.1
20260902183026 66 207 2.0 5.0 0.00 0.00 0.00 93 1020.2
20260902182529 66 180 1.0 3.0 0.00 0.00 0.00 92 1019.8
20260902182023 65 184 1.0 3.0 0.00 0.00 0.00 92 1020.1
20260902181523 65 184 2.0 3.0 0.00 0.00 0.00 92 1020.3
20260902181023 65 184 0.0 6.0 0.00 0.00 0.00 92 1020.3
20260902180526 65 244 0.0 3.0 0.00 0.00 0.00 92 1020.4
20260902180032 65 265 0.0 2.0 0.00 0.00 0.00 91 1020.6
20260902175522 65 265 0.0 1.0 0.00 0.00 0.00 91 1020.9
20260902175025 65 265 0.0 0.0 0.00 0.00 0.00 91 1021.0
20260902174521 65 265 0.0 1.0 0.00 0.00 0.00 91 1021.0
20260902174021 65 265 0.0 1.0 0.00 0.00 0.00 90 1021.1
20260902173521 65 265 0.0 0.0 0.00 0.00 0.00 90 1021.3
20260902173030 65 265 0.0 3.0 0.00 0.00 0.00 89 1021.4
20260902172526 65 265 1.0 3.0 0.00 0.00 0.00 89 1021.6
20260902172020 65 239 1.0 3.0 0.00 0.00 0.00 89 1021.5
20260902171520 65 224 1.0 3.0 0.00 0.00 0.00 88 1021.3
20260902171020 65 224 0.0 2.0 0.00 0.00 0.00 88 1021.1
20260902170520 65 224 0.0 0.0 0.00 0.00 0.00 88 1021.0
20260902170019 65 224 0.0 3.0 0.00 0.00 0.00 88 1021.0
20260902165520 65 224 1.0 3.0 0.00 0.00 0.00 88 1021.1
20260902165019 65 224 1.0 4.0 0.00 0.00 0.00 88 1021.0
20260902164520 65 224 2.0 7.0 0.00 0.00 0.00 88 1021.2
20260902164022 65 222 3.0 7.0 0.00 0.00 0.00 88 1021.2
20260902163517 65 160 2.0 5.0 0.00 0.00 0.00 88 1021.2
20260902163018 65 158 0.0 3.0 0.00 0.00 0.00 89 1021.0
20260902162517 65 158 1.0 5.0 0.00 0.00 0.00 89 1021.1
20260902162019 65 158 1.0 5.0 0.00 0.00 0.00 89 1021.2
20260902161528 65 157 0.0 3.0 0.00 0.00 0.00 89 1021.3
20260902161016 65 156 1.0 3.0 0.00 0.00 0.00 89 1021.4
20260902160515 65 156 1.0 3.0 0.00 0.00 0.00 89 1021.2
20260902160015 65 156 0.0 3.0 0.00 0.00 0.00 90 1020.9
20260902155515 65 156 0.0 3.0 0.00 0.00 0.00 90 1020.9
20260902155015 65 156 0.0 3.0 0.00 0.00 0.00 90 1020.9
20260902154514 65 156 0.0 1.0 0.00 0.00 0.00 90 1020.8
20260902154020 65 156 0.0 3.0 0.00 0.00 0.00 90 1020.7
20260902153514 65 156 0.0 3.0 0.00 0.00 0.00 90 1020.9
20260902153015 65 156 1.0 5.0 0.00 0.00 0.00 91 1020.9
20260902152513 65 154 1.0 5.0 0.00 0.00 0.00 91 1021.0
20260902152014 65 154 1.0 3.0 0.00 0.00 0.00 91 1020.9
20260902151515 65 154 0.0 5.0 0.00 0.00 0.00 91 1020.9
20260902151013 64 164 2.0 5.0 0.00 0.00 0.00 91 1021.0
20260902150515 64 164 0.0 5.0 0.00 0.00 0.00 92 1020.9
20260902150013 64 217 2.0 4.0 0.00 0.00 0.00 92 1021.0
20260902145513 64 218 1.0 6.0 0.00 0.00 0.00 92 1021.1
20260902145012 64 205 2.0 6.0 0.00 0.00 0.00 93 1021.1
20260902144519 64 207 1.0 3.0 0.00 0.00 0.00 93 1021.1
20260902144012 64 175 0.0 4.0 0.00 0.00 0.00 93 1021.2
20260902143512 64 175 2.0 4.0 0.00 0.00 0.00 93 1021.4
20260902143012 64 175 1.0 4.0 0.00 0.00 0.00 93 1021.4
20260902142512 63 175 0.0 4.0 0.00 0.00 0.00 93 1021.5
20260902142012 63 175 1.0 4.0 0.00 0.00 0.00 93 1021.4
20260902141511 63 170 2.0 4.0 0.00 0.00 0.00 93 1021.4
20260902141011 63 165 1.0 3.0 0.00 0.00 0.00 93 1021.3
20260902140511 63 165 0.0 3.0 0.00 0.00 0.00 93 1021.2
20260902140011 63 165 1.0 6.0 0.00 0.00 0.00 93 1021.2
20260902135511 63 165 2.0 6.0 0.00 0.00 0.00 94 1021.2
20260902135010 63 157 1.0 5.0 0.00 0.00 0.00 94 1021.2
20260902134511 63 157 0.0 5.0 0.00 0.00 0.00 94 1021.3
20260902134109 63 157 3.0 5.0 0.00 0.00 0.00 94 1021.3
20260902133509 63 296 2.0 4.0 0.00 0.00 0.00 94 1021.5
20260902133009 63 155 0.0 3.0 0.00 0.00 0.00 94 1021.3
20260902132510 63 155 1.0 3.0 0.00 0.00 0.00 94 1021.1
20260902132007 62 156 0.0 3.0 0.00 0.00 0.00 94 1021.1
20260902131508 62 156 1.0 3.0 0.00 0.00 0.00 94 1021.2
20260902131009 62 156 1.0 3.0 0.00 0.00 0.00 94 1021.1
20260902130508 62 156 0.0 3.0 0.00 0.00 0.00 94 1021.0
20260902130007 62 156 0.0 3.0 0.00 0.00 0.00 94 1021.2
20260902125506 62 156 0.0 3.0 0.00 0.00 0.00 94 1020.9
20260902125005 62 156 1.0 3.0 0.00 0.00 0.00 94 1020.7
20260902124507 62 156 1.0 3.0 0.00 0.00 0.00 94 1020.7
20260902124005 62 156 0.0 3.0 0.00 0.00 0.00 94 1020.8
20260902123505 62 156 0.0 3.0 0.00 0.00 0.00 94 1020.7
20260902123005 62 154 0.0 5.0 0.00 0.00 0.00 94 1020.7
20260902122505 62 154 1.0 5.0 0.00 0.00 0.00 94 1020.7
20260902122004 62 159 0.0 3.0 0.00 0.00 0.00 94 1020.5
20260902121504 62 159 1.0 3.0 0.00 0.00 0.00 94 1020.4
20260902121004 62 159 0.0 3.0 0.00 0.00 0.00 94 1020.4
20260902120504 62 142 0.0 2.0 0.00 0.00 0.00 94 1020.5
20260902120002 63 142 0.0 2.0 0.00 0.00 0.00 94 1020.6
20260902115504 63 142 0.0 3.0 0.00 0.00 0.00 94 1020.6
20260902115002 63 142 1.0 3.0 0.00 0.00 0.00 94 1020.5
20260902114501 63 148 0.0 5.0 0.00 0.00 0.00 94 1020.5
20260902114003 63 148 1.0 5.0 0.00 0.00 0.00 94 1020.5
20260902113501 63 149 0.0 6.0 0.00 0.00 0.00 94 1020.5
20260902113001 63 161 1.0 4.0 0.00 0.00 0.00 94 1020.5
20260902112600 63 163 0.0 2.0 0.00 0.00 0.00 94 1020.6
20260902112100 63 163 0.0 0.0 0.00 0.00 0.00 94 1020.7
20260902111600 63 163 0.0 0.0 0.00 0.00 0.00 94 1020.6
20260902111059 63 163 0.0 1.0 0.00 0.00 0.00 94 1020.7
20260902110602 63 163 0.0 0.0 0.00 0.00 0.00 94 1020.6
20260902110059 63 164 0.0 0.0 0.00 0.00 0.00 94 1020.7
20260902105559 63 164 0.0 3.0 0.00 0.00 0.00 94 1020.6
20260902105058 63 164 0.0 3.0 0.00 0.00 0.00 94 1020.6
20260902104557 63 80 0.0 1.0 0.00 0.00 0.00 94 1020.6
20260902104058 63 80 0.0 0.0 0.00 0.00 0.00 94 1020.5
20260902103556 63 80 0.0 0.0 0.00 0.00 0.00 94 1020.5
20260902103056 63 80 0.0 1.0 0.00 0.00 0.00 94 1020.5
20260902102556 63 80 0.0 1.0 0.00 0.00 0.00 94 1020.3
20260902102056 63 80 0.0 0.0 0.00 0.00 0.00 94 1020.4
20260902101556 63 80 0.0 3.0 0.00 0.00 0.00 94 1020.4
20260902101055 63 80 0.0 3.0 0.00 0.00 0.00 94 1020.4
20260902100556 63 80 0.0 0.0 0.00 0.00 0.00 94 1020.4
20260902100054 63 80 0.0 0.0 0.00 0.00 0.00 94 1020.3
20260902095552 63 80 0.0 0.0 0.00 0.00 0.00 94 1020.3
20260902095056 63 80 0.0 0.0 0.00 0.00 0.00 94 1020.1
20260902094556 63 80 0.0 0.0 0.00 0.00 0.00 94 1020.1
20260902094053 63 80 0.0 0.0 0.00 0.00 0.00 94 1020.2
20260902093551 63 80 0.0 0.0 0.00 0.00 0.00 94 1020.1
20260902093050 63 80 0.0 0.0 0.00 0.00 0.00 94 1019.9
20260902092549 63 80 0.0 0.0 0.00 0.00 0.00 94 1019.9
20260902092049 63 80 0.0 0.0 0.00 0.00 0.00 94 1019.7
20260902091550 63 80 0.0 0.0 0.00 0.00 0.00 94 1019.7
20260902091049 63 80 0.0 0.0 0.00 0.00 0.00 94 1019.7
20260902090551 63 80 0.0 0.0 0.00 0.00 0.00 94 1019.7
20260902090049 63 80 0.0 0.0 0.00 0.00 0.00 94 1019.6
20260902085547 63 80 0.0 0.0 0.00 0.00 0.00 94 1019.6
20260902085047 63 80 0.0 0.0 0.00 0.00 0.00 94 1019.6
20260902084549 63 80 0.0 0.0 0.00 0.00 0.00 94 1019.5
20260902084047 63 80 0.0 0.0 0.00 0.00 0.00 94 1019.6
20260902083547 63 80 0.0 0.0 0.00 0.00 0.00 94 1019.6
20260902083049 63 80 0.0 0.0 0.00 0.00 0.00 94 1019.6
20260902082547 63 80 0.0 2.0 0.00 0.00 0.00 94 1019.5
20260902082046 63 80 0.0 2.0 0.00 0.00 0.00 94 1019.4
20260902081553 63 80 0.0 0.0 0.00 0.00 0.00 94 1019.4
20260902081046 63 80 0.0 0.0 0.00 0.00 0.00 94 1019.3
20260902080546 63 80 0.0 0.0 0.00 0.00 0.00 94 1019.2
20260902080046 63 80 0.0 0.0 0.00 0.00 0.00 94 1019.2
20260902075544 63 80 0.0 0.0 0.00 0.00 0.00 93 1019.1
20260902075048 63 80 0.0 1.0 0.00 0.00 0.00 93 1019.2
20260902074605 63 80 0.0 2.0 0.00 0.00 0.00 94 1019.3
20260902074046 63 80 0.0 2.0 0.00 0.00 0.00 94 1019.3
20260902073544 63 80 0.0 2.0 0.00 0.00 0.00 94 1019.4
20260902073044 64 80 0.0 3.0 0.00 0.00 0.00 94 1019.4
20260902072544 64 80 0.0 3.0 0.00 0.00 0.00 93 1019.4
20260902072043 64 80 0.0 3.0 0.00 0.00 0.00 93 1019.3
20260902071543 64 80 0.0 3.0 0.00 0.00 0.00 93 1019.4
20260902071043 64 80 1.0 3.0 0.00 0.00 0.00 93 1019.4
20260902070542 64 80 0.0 3.0 0.00 0.00 0.00 93 1019.5
20260902070043 64 80 0.0 3.0 0.00 0.00 0.00 93 1019.6
20260902065545 64 80 0.0 1.0 0.00 0.00 0.00 93 1019.5
20260902065042 64 80 0.0 1.0 0.00 0.00 0.00 93 1019.5
20260902064545 64 80 0.0 0.0 0.00 0.00 0.00 93 1019.6
20260902064041 64 80 0.0 0.0 0.00 0.00 0.00 93 1019.6
20260902063540 64 80 0.0 1.0 0.00 0.00 0.00 93 1019.6
20260902063100 64 80 0.0 1.0 0.00 0.00 0.00 93 1019.5
20260902062541 64 80 0.0 0.0 0.00 0.00 0.00 93 1019.5
20260902062040 64 80 0.0 2.0 0.00 0.00 0.00 93 1019.6
20260902061540 64 80 0.0 2.0 0.00 0.00 0.00 93 1019.6
20260902061040 64 80 0.0 0.0 0.00 0.00 0.00 93 1019.7
20260902060543 64 80 0.0 0.0 0.00 0.00 0.00 93 1019.7
20260902060052 64 80 0.0 0.0 0.00 0.00 0.00 93 1019.7
20260902055538 64 80 0.0 3.0 0.00 0.00 0.00 93 1019.6
20260902055038 64 80 0.0 3.0 0.00 0.00 0.00 93 1019.7
20260902054538 64 80 0.0 1.0 0.00 0.00 0.00 93 1019.7
20260902054036 64 80 0.0 2.0 0.00 0.00 0.00 93 1019.6
20260902053536 64 80 0.0 2.0 0.00 0.00 0.00 93 1019.6
20260902053036 64 80 0.0 2.0 0.00 0.00 0.00 93 1019.5
20260902052538 64 80 0.0 2.0 0.00 0.00 0.00 93 1019.6
20260902052035 64 80 0.0 3.0 0.00 0.00 0.00 93 1019.5
20260902051544 64 80 0.0 2.0 0.00 0.00 0.00 93 1019.4
20260902051033 64 80 0.0 1.0 0.00 0.00 0.00 93 1019.4
20260902050533 64 80 0.0 2.0 0.00 0.00 0.00 93 1019.2
20260902050033 64 80 0.0 2.0 0.00 0.00 0.00 93 1019.2
20260902045531 64 81 0.0 2.0 0.00 0.00 0.00 93 1019.2
20260902045030 64 80 0.0 3.0 0.00 0.00 0.00 93 1019.1
20260902044530 64 67 1.0 3.0 0.00 0.00 0.00 93 1019.1
20260902044030 65 67 0.0 3.0 0.00 0.00 0.00 93 1019.1
20260902043528 65 67 0.0 3.0 0.00 0.00 0.00 93 1018.9
20260902043028 65 67 0.0 2.0 0.00 0.00 0.00 93 1018.9
20260902042527 65 67 0.0 2.0 0.00 0.00 0.00 93 1018.8
20260902042028 65 67 0.0 2.0 0.00 0.00 0.00 93 1018.7
20260902041540 65 67 0.0 1.0 0.00 0.00 0.00 93 1018.8
20260902041025 65 67 0.0 1.0 0.00 0.00 0.00 93 1018.6
20260902040525 65 67 0.0 2.0 0.00 0.00 0.00 93 1018.5
20260902040026 65 67 0.0 1.0 0.00 0.00 0.00 93 1018.5
20260902035522 65 67 0.0 1.0 0.00 0.00 0.00 93 1018.5
20260902035022 65 67 0.0 2.0 0.00 0.00 0.00 93 1018.4
20260902034521 65 67 0.0 2.0 0.00 0.00 0.00 93 1018.4
20260902034021 65 67 0.0 7.0 0.00 0.00 0.00 93 1018.1
20260902033520 65 67 2.0 7.0 0.00 0.00 0.00 93 1018.2
20260902033019 66 82 1.0 4.0 0.00 0.00 0.00 93 1018.2
20260902032522 66 81 0.0 4.0 0.00 0.00 0.00 93 1018.2
20260902032018 66 81 1.0 4.0 0.00 0.00 0.00 93 1018.1
20260902031517 66 80 0.0 3.0 0.00 0.00 0.00 93 1018.1
20260902031017 66 80 1.0 3.0 0.00 0.00 0.00 93 1018.2
20260902030515 66 80 1.0 2.0 0.00 0.00 0.00 93 1018.0
20260902030015 66 80 0.0 2.0 0.00 0.00 0.00 93 1017.9
20260902025514 66 80 0.0 2.0 0.00 0.00 0.00 93 1017.8
20260902025017 66 80 0.0 2.0 0.00 0.00 0.00 93 1017.9
20260902024514 66 80 0.0 0.0 0.00 0.00 0.00 93 1017.9
20260902024013 67 80 0.0 2.0 0.00 0.00 0.00 93 1018.0
20260902023513 67 80 0.0 4.0 0.00 0.00 0.00 93 1017.8
20260902023012 67 80 0.0 4.0 0.00 0.00 0.00 93 1017.6
20260902022512 67 80 2.0 4.0 0.00 0.00 0.00 93 1017.5
20260902022011 67 80 1.0 4.0 0.00 0.00 0.00 93 1017.6
20260902021511 67 80 0.0 2.0 0.00 0.00 0.00 93 1017.7
20260902021011 67 80 0.0 1.0 0.00 0.00 0.00 93 1017.8
20260902020511 67 80 0.0 3.0 0.00 0.00 0.00 93 1017.8
20260902020009 67 80 0.0 3.0 0.00 0.00 0.00 93 1017.7
20260902015509 67 80 1.0 3.0 0.00 0.00 0.00 93 1017.6
20260902015008 67 80 0.0 2.0 0.00 0.00 0.00 93 1017.8
20260902014513 68 80 0.0 0.0 0.00 0.00 0.00 93 1017.7
20260902014009 68 80 0.0 0.0 0.00 0.00 0.00 93 1017.8
20260902013507 68 80 0.0 2.0 0.00 0.00 0.00 93 1017.7
20260902013006 68 80 0.0 4.0 0.00 0.00 0.00 93 1017.7
20260902012506 68 80 0.0 3.0 0.00 0.00 0.00 93 1017.5
20260902012006 68 80 1.0 3.0 0.00 0.00 0.00 93 1017.4
20260902011510 68 80 1.0 3.0 0.00 0.00 0.00 93 1017.3
20260902011006 68 80 0.0 3.0 0.00 0.00 0.00 93 1017.4
20260902010506 68 80 1.0 3.0 0.00 0.00 0.00 93 1017.3
20260902010006 68 80 1.0 5.0 0.00 0.00 0.00 93 1017.2
20260902005505 68 78 0.0 4.0 0.00 0.00 0.00 93 1017.0
20260902005005 69 78 1.0 5.0 0.00 0.00 0.00 93 1016.8
20260902004505 69 78 1.0 5.0 0.00 0.00 0.00 93 1016.7
20260902004004 69 84 1.0 7.0 0.00 0.00 0.00 93 1016.6
20260902003504 69 84 1.0 7.0 0.00 0.00 0.00 93 1016.5
20260902003015 69 85 3.0 7.0 0.00 0.00 0.00 93 1016.3
20260902002505 70 106 2.0 8.0 0.00 0.00 0.00 93 1016.4
20260902002004 70 69 2.0 8.0 0.00 0.00 0.00 93 1016.3
20260902001505 70 86 0.0 3.0 0.00 0.00 0.00 93 1016.3
20260902001003 70 86 1.0 3.0 0.00 0.00 0.00 93 1016.2
20260902000503 70 90 1.0 3.0 0.00 0.00 0.00 93 1016.1
20260902000006 70 90 0.0 6.0 0.00 0.00 0.00 93 1016.0
20260901235503 70 90 0.0 7.0 0.00 0.00 0.00 93 1015.8
20260901235002 70 50 2.0 4.0 0.00 0.00 0.00 93 1015.8
20260901234502 70 36 0.0 2.0 0.00 0.00 0.00 93 1015.7
20260901234003 70 36 0.0 1.0 0.00 0.00 0.00 93 1015.8
20260901233502 70 36 0.0 2.0 0.00 0.00 0.00 93 1015.8
20260901233002 70 36 0.0 2.0 0.00 0.00 0.00 93 1015.7
20260901232504 70 30 0.0 3.0 0.00 0.00 0.00 93 1015.9
20260901232002 70 30 1.0 3.0 0.00 0.00 0.00 93 1016.0
20260901231503 70 30 0.0 3.0 0.00 0.00 0.00 93 1016.0
20260901231002 71 49 0.0 4.0 0.00 0.00 0.00 93 1015.9
20260901230502 71 49 1.0 4.0 0.00 0.00 0.00 93 1015.9
20260901230005 71 40 1.0 5.0 0.00 0.00 0.00 93 1015.8
20260901225501 71 67 1.0 5.0 0.00 0.00 0.00 93 1015.9
20260901225001 71 338 0.0 3.0 0.00 0.00 0.00 93 1015.8
20260901224503 71 41 1.0 4.0 0.00 0.00 0.00 93 1015.6
20260901224103 71 67 1.0 4.0 0.00 0.00 0.00 93 1015.5
20260901223600 71 58 2.0 4.0 0.00 0.00 0.00 93 1015.3
20260901223100 71 355 0.0 5.0 0.00 0.00 0.00 92 1015.6
20260901222559 71 19 1.0 5.0 0.00 0.00 0.00 92 1015.4
20260901222100 71 73 0.0 3.0 0.00 0.00 0.00 92 1015.5
20260901221614 72 73 1.0 4.0 0.00 0.00 0.00 92 1015.4
20260901221100 72 40 1.0 4.0 0.00 0.00 0.00 92 1015.4
20260901220559 72 34 0.0 4.0 0.00 0.00 0.00 92 1015.3
20260901220100 72 34 0.0 4.0 0.00 0.00 0.00 92 1015.2
20260901215559 72 95 1.0 4.0 0.00 0.00 0.00 92 1015.1